When you browse on this site, cookies collect data to enhance your experience and personalize the content and advertising you see.
Visit our Privacy Policy to learn more. By continuing to use the site, you agree to this use of cookies and data.
  • în România
  • Lista ţărilor
  • Pe 7 zile
  • Temperatura apei
  • Meteo pe hartă
  • Widget-uri
  • user-avatar
    Intrare

    Meteo pe oră la Hobart

    Astăzi, 22 Februarie, Sâmbătă

    Timp Temperatura Precipitaţii Vânt Presiune Umiditate
    00:00 +7°C° 0 mm 2 m/s 754 mmHg 82%
    01:00 +7°C° 0 mm 2 m/s 754 mmHg 84%
    02:00 +6°C° 0 mm 2 m/s 754 mmHg 85%
    03:00 +6°C° 0 mm 2 m/s 754 mmHg 87%
    04:00 +6°C° 0 mm 2 m/s 753 mmHg 87%
    05:00 +8°C° 0 mm 1 m/s 754 mmHg 84%
    06:00 +8°C° 0 mm 1 m/s 754 mmHg 80%
    07:00 +9°C° 0 mm 1 m/s 754 mmHg 77%
    08:00 +12°C° 0 mm 1 m/s 754 mmHg 65%
    09:00 +15°C° 0 mm 1 m/s 754 mmHg 52%
    10:00 +18°C° 0 mm 2 m/s 754 mmHg 40%
    11:00 +20°C° 0 mm 2 m/s 754 mmHg 38%
    12:00 +23°C° 0 mm 2 m/s 754 mmHg 35%
    13:00 +25°C° 0 mm 2 m/s 754 mmHg 33%
    14:00 +24°C° 0 mm 2 m/s 753 mmHg 37%
    15:00 +22°C° 0 mm 3 m/s 753 mmHg 41%
    16:00 +21°C° 0 mm 3 m/s 752 mmHg 46%
    17:00 +18°C° 0 mm 3 m/s 753 mmHg 56%
    18:00 +16°C° 0 mm 2 m/s 753 mmHg 66%
    19:00 +14°C° 0 mm 1 m/s 753 mmHg 77%
    20:00 +13°C° 0 mm 1 m/s 753 mmHg 82%
    21:00 +12°C° 0 mm 1 m/s 753 mmHg 87%
    22:00 +11°C° 0 mm 1 m/s 753 mmHg 92%
    23:00 +11°C° 0 mm 1 m/s 753 mmHg 92%

    Mâine, 23 Februarie, Duminică

    Timp Temperatura Precipitaţii Vânt Presiune Umiditate
    00:00 +11°C° 0 mm 1 m/s 753 mmHg 92%
    01:00 +11°C° 0 mm 1 m/s 753 mmHg 93%
    02:00 +10°C° 0 mm 1 m/s 753 mmHg 94%
    03:00 +10°C° 0 mm 1 m/s 753 mmHg 94%
    04:00 +10°C° 0 mm 1 m/s 753 mmHg 95%
    05:00 +10°C° 0 mm 1 m/s 753 mmHg 92%
    06:00 +11°C° 0 mm 1 m/s 753 mmHg 88%
    07:00 +12°C° 0 mm 1 m/s 753 mmHg 84%
    08:00 +15°C° 0 mm 1 m/s 753 mmHg 73%
    09:00 +19°C° 0 mm 1 m/s 752 mmHg 61%
    10:00 +22°C° 0 mm 1 m/s 752 mmHg 49%
    11:00 +23°C° 0 mm 1 m/s 751 mmHg 45%
    12:00 +25°C° 0 mm 2 m/s 751 mmHg 40%
    13:00 +26°C° 0 mm 2 m/s 750 mmHg 35%
    14:00 +25°C° 0 mm 2 m/s 749 mmHg 41%
    15:00 +24°C° 0 mm 3 m/s 748 mmHg 47%
    16:00 +22°C° 0 mm 3 m/s 748 mmHg 53%
    17:00 +20°C° 0 mm 3 m/s 748 mmHg 63%
    18:00 +17°C° 0 mm 3 m/s 748 mmHg 73%
    19:00 +14°C° 0 mm 3 m/s 748 mmHg 84%
    20:00 +13°C° 0 mm 3 m/s 749 mmHg 86%
    21:00 +14°C° 0 mm 2 m/s 749 mmHg 88%
    22:00 +13°C° 0 mm 1 m/s 750 mmHg 91%
    23:00 +13°C° 0 mm 1 m/s 750 mmHg 91%

    Poimâine, 24 Februarie, Luni

    Timp Temperatura Precipitaţii Vânt Presiune Umiditate
    00:00 +13°C° 0 mm 1 m/s 750 mmHg 91%
    01:00 +13°C° 0 mm 2 m/s 750 mmHg 91%
    02:00 +13°C° 0 mm 1 m/s 750 mmHg 90%
    03:00 +13°C° 0 mm 1 m/s 749 mmHg 89%
    04:00 +13°C° 0 mm 1 m/s 749 mmHg 88%
    05:00 +14°C° 0 mm 1 m/s 750 mmHg 87%
    06:00 +14°C° 0 mm 1 m/s 750 mmHg 86%
    07:00 +13°C° 0 mm 0 m/s 751 mmHg 85%
    08:00 +16°C° 0 mm 1 m/s 751 mmHg 77%
    09:00 +18°C° 0 mm 1 m/s 751 mmHg 69%
    10:00 +20°C° 0 mm 1 m/s 751 mmHg 60%
    11:00 +21°C° 0 mm 1 m/s 751 mmHg 55%
    12:00 +23°C° 0 mm 1 m/s 751 mmHg 49%
    13:00 +24°C° 0 mm 1 m/s 751 mmHg 43%
    14:00 +23°C° 0 mm 2 m/s 750 mmHg 50%
    15:00 +21°C° 0 mm 2 m/s 750 mmHg 56%
    16:00 +20°C° 0 mm 2 m/s 749 mmHg 62%
    17:00 +18°C° 0 mm 2 m/s 749 mmHg 69%
    18:00 +17°C° 0 mm 2 m/s 749 mmHg 76%
    19:00 +16°C° 0 mm 1 m/s 750 mmHg 83%
    20:00 +15°C° 0 mm 1 m/s 750 mmHg 87%
    21:00 +14°C° 0 mm 1 m/s 750 mmHg 92%
    22:00 +12°C° 0 mm 0 m/s 750 mmHg 96%
    23:00 +13°C° 0 mm 1 m/s 749 mmHg 96%

    25 Februarie, Marţi

    Timp Temperatura Precipitaţii Vânt Presiune Umiditate
    00:00 +13°C° 0 mm 1 m/s 749 mmHg 96%
    01:00 +13°C° 0 mm 1 m/s 748 mmHg 96%
    02:00 +12°C° 0 mm 1 m/s 748 mmHg 96%
    03:00 +12°C° 0 mm 1 m/s 747 mmHg 96%
    04:00 +12°C° 0 mm 2 m/s 746 mmHg 96%
    05:00 +12°C° 0 mm 2 m/s 746 mmHg 91%
    06:00 +13°C° 0 mm 2 m/s 746 mmHg 87%
    07:00 +13°C° 0 mm 2 m/s 745 mmHg 83%
    08:00 +16°C° 0 mm 2 m/s 745 mmHg 68%
    09:00 +20°C° 0 mm 2 m/s 744 mmHg 53%
    10:00 +24°C° 0 mm 2 m/s 744 mmHg 38%
    11:00 +25°C° 0 mm 2 m/s 743 mmHg 35%
    12:00 +26°C° 0 mm 2 m/s 742 mmHg 33%
    13:00 +28°C° 0 mm 3 m/s 742 mmHg 30%
    14:00 +27°C° 0 mm 3 m/s 741 mmHg 32%
    15:00 +26°C° 0 mm 3 m/s 740 mmHg 34%
    16:00 +25°C° 0 mm 3 m/s 739 mmHg 36%
    17:00 +22°C° 0 mm 3 m/s 738 mmHg 45%
    18:00 +19°C° 0 mm 2 m/s 738 mmHg 54%
    19:00 +17°C° 0 mm 2 m/s 738 mmHg 63%
    20:00 +16°C° 0 mm 2 m/s 737 mmHg 65%
    21:00 +15°C° 0 mm 2 m/s 737 mmHg 67%
    22:00 +14°C° 0 mm 3 m/s 737 mmHg 68%
    23:00 +13°C° 0 mm 3 m/s 736 mmHg 69%

    26 Februarie, Miercuri

    Timp Temperatura Precipitaţii Vânt Presiune Umiditate
    00:00 +13°C° 0 mm 3 m/s 736 mmHg 70%
    01:00 +12°C° 0 mm 4 m/s 735 mmHg 71%
    02:00 +11°C° 0.6 mm 4 m/s 735 mmHg 75%
    03:00 +10°C° 0.6 mm 4 m/s 735 mmHg 79%
    04:00 +8°C° 0.6 mm 4 m/s 735 mmHg 82%
    05:00 +8°C° 0 mm 4 m/s 736 mmHg 82%
    06:00 +8°C° 0 mm 4 m/s 736 mmHg 81%
    07:00 +8°C° 0 mm 4 m/s 736 mmHg 81%
    08:00 +10°C° 0.1 mm 4 m/s 737 mmHg 72%
    09:00 +10°C° 0.1 mm 5 m/s 738 mmHg 63%
    10:00 +13°C° 0.1 mm 5 m/s 739 mmHg 54%
    11:00 +13°C° 0.1 mm 6 m/s 739 mmHg 50%
    12:00 +14°C° 0.1 mm 6 m/s 740 mmHg 45%
    13:00 +15°C° 0.1 mm 6 m/s 740 mmHg 41%
    14:00 +15°C° 0 mm 6 m/s 741 mmHg 41%
    15:00 +14°C° 0 mm 6 m/s 741 mmHg 41%
    16:00 +14°C° 0 mm 6 m/s 742 mmHg 42%
    17:00 +13°C° 0 mm 5 m/s 742 mmHg 47%
    18:00 +10°C° 0 mm 5 m/s 743 mmHg 53%
    19:00 +10°C° 0 mm 4 m/s 743 mmHg 59%
    20:00 +8°C° 0 mm 4 m/s 744 mmHg 64%
    21:00 +8°C° 0 mm 3 m/s 744 mmHg 70%
    22:00 +7°C° 0 mm 3 m/s 744 mmHg 76%
    23:00 +7°C° 0 mm 3 m/s 744 mmHg 76%

    27 Februarie, Joi

    Timp Temperatura Precipitaţii Vânt Presiune Umiditate
    00:00 +8°C° 0 mm 3 m/s 744 mmHg 77%
    01:00 +8°C° 0 mm 3 m/s 744 mmHg 77%
    02:00 +8°C° 0 mm 3 m/s 744 mmHg 75%
    03:00 +9°C° 0 mm 3 m/s 744 mmHg 72%
    04:00 +10°C° 0 mm 3 m/s 744 mmHg 70%
    05:00 +10°C° 0 mm 3 m/s 744 mmHg 69%
    06:00 +11°C° 0 mm 3 m/s 744 mmHg 67%
    07:00 +11°C° 0 mm 3 m/s 744 mmHg 66%
    08:00 +12°C° 0 mm 4 m/s 744 mmHg 63%
    09:00 +13°C° 0 mm 4 m/s 744 mmHg 61%
    10:00 +14°C° 0 mm 5 m/s 744 mmHg 59%
    11:00 +15°C° 0 mm 5 m/s 744 mmHg 58%
    12:00 +15°C° 0 mm 5 m/s 743 mmHg 56%
    13:00 +16°C° 0 mm 6 m/s 743 mmHg 55%
    14:00 +16°C° 0 mm 5 m/s 743 mmHg 56%
    15:00 +16°C° 0 mm 5 m/s 742 mmHg 56%
    16:00 +16°C° 0 mm 5 m/s 742 mmHg 56%
    17:00 +15°C° 0 mm 5 m/s 742 mmHg 60%
    18:00 +14°C° 0 mm 4 m/s 743 mmHg 64%
    19:00 +14°C° 0 mm 4 m/s 743 mmHg 67%
    20:00 +13°C° 0 mm 4 m/s 743 mmHg 70%
    21:00 +13°C° 0 mm 3 m/s 743 mmHg 72%
    22:00 +13°C° 0 mm 3 m/s 744 mmHg 74%
    23:00 +13°C° 0 mm 3 m/s 743 mmHg 74%
    Arată mai mult